User: anonymous   Login
Location: Young's Pond
(41.2695°N, 72.7766°W)
Time: 19:46:47
(UTC-04:00)
Language:

Spot 4 - Orbit

View from above orbital plane
View from above orbital plane
View from above satellite
View from above satellite

Ground track
Ground track

The orbit data is extracted from the following two-line orbital elements,

1 25260U 98017A   15084.89881199  .00000223  00000-0  64914-4 0  9996
2 25260 098.4230 155.7828 0011971 251.3387 108.6506 14.53214137883575
Epoch (UTC): 25 March 2015 21:34:17
Eccentricity: 0.0011971
inclination: 98.4230°
perigee height: 706 km
apogee height: 723 km
right ascension of ascending node: 155.7828°
argument of perigee: 251.3387°
revolutions per day: 14.53214137
mean anomaly at epoch: 108.6506°
orbit number at epoch: 88357

The dashed part of the orbit path shows where the satellite is in the earth's shadow,  

DLR